TimeEST,TemperatureF,Dew PointF,Humidity,Sea Level PressureIn,VisibilityMPH,Wind Direction,Wind SpeedMPH,Gust SpeedMPH,PrecipitationIn,Events,Conditions,WindDirDegrees,DateUTC
12:52 AM,16.0,5.0,62,30.36,10.0,NW,4.6,-,N/A,,Clear,320,2012-03-06 05:52:00
1:52 AM,12.9,5.0,71,30.37,10.0,NNW,3.5,-,N/A,,Clear,330,2012-03-06 06:52:00
2:52 AM,10.9,6.1,81,30.40,10.0,NNW,3.5,-,N/A,,Clear,330,2012-03-06 07:52:00
3:52 AM,9.0,3.9,80,30.43,10.0,NW,3.5,-,N/A,,Clear,310,2012-03-06 08:52:00
4:52 AM,8.1,3.9,83,30.46,10.0,Calm,Calm,-,N/A,,Clear,0,2012-03-06 09:52:00
5:52 AM,7.0,3.9,87,30.50,10.0,Calm,Calm,-,N/A,,Clear,0,2012-03-06 10:52:00
6:52 AM,6.1,3.9,91,30.53,10.0,Calm,Calm,-,N/A,,Clear,0,2012-03-06 11:52:00
7:52 AM,12.9,8.1,81,30.56,10.0,Calm,Calm,-,N/A,,Clear,0,2012-03-06 12:52:00
8:52 AM,19.0,5.0,54,30.56,10.0,Calm,Calm,-,N/A,,Clear,0,2012-03-06 13:52:00
9:52 AM,21.9,3.0,44,30.56,10.0,South,4.6,-,N/A,,Clear,180,2012-03-06 14:52:00
10:52 AM,28.0,-0.0,30,30.58,10.0,Calm,Calm,-,N/A,,Clear,0,2012-03-06 15:52:00
11:52 AM,30.0,-0.9,27,30.56,10.0,Calm,Calm,-,N/A,,Clear,0,2012-03-06 16:52:00
12:52 PM,33.1,-0.9,23,30.53,10.0,NW,6.9,-,N/A,,Clear,310,2012-03-06 17:52:00
1:52 PM,35.1,1.9,25,30.52,10.0,Calm,Calm,-,0.00,,Clear,0,2012-03-06 18:52:00
2:52 PM,36.0,-0.9,21,30.52,10.0,NNW,3.5,-,N/A,,Clear,330,2012-03-06 19:52:00
3:52 PM,37.0,-0.0,21,30.53,10.0,WNW,8.1,-,N/A,,Clear,300,2012-03-06 20:52:00
4:52 PM,36.0,-0.9,21,30.54,10.0,West,4.6,-,N/A,,Clear,260,2012-03-06 21:52:00
5:52 PM,30.9,5.0,33,30.55,10.0,Calm,Calm,-,N/A,,Clear,0,2012-03-06 22:52:00
6:52 PM,25.0,12.0,58,30.56,10.0,Calm,Calm,-,N/A,,Clear,0,2012-03-06 23:52:00
7:52 PM,23.0,12.0,63,30.56,10.0,Calm,Calm,-,N/A,,Clear,0,2012-03-07 00:52:00
8:52 PM,24.1,12.0,60,30.57,10.0,Calm,Calm,-,N/A,,Clear,0,2012-03-07 01:52:00
9:52 PM,21.0,12.0,68,30.58,10.0,Calm,Calm,-,N/A,,Clear,0,2012-03-07 02:52:00
10:52 PM,19.9,12.9,74,30.56,10.0,Calm,Calm,-,N/A,,Clear,0,2012-03-07 03:52:00
11:52 PM,21.0,14.0,74,30.56,10.0,Calm,Calm,-,N/A,,Partly Cloudy,0,2012-03-07 04:52:00